XM-5

Last updated on Fri Dec 19 2025 00:02:50 GMT+0000 (Coordinated Universal Time)

1 37185U 10053A 25352.60248824 .00000002 00000+0 00000+0 0 9994 2 37185 0.0631 271.8584 0001923 235.4563 41.8538 1.00273692 55676
UTC large
Height (km)
Speed (km/s)
/
Latitude / Longitude
Inclination (degrees)
Orbital Period (minutes)
Azimuth
Elevation
Range (km)
Doppler Factor

Next 0 passes for location: London (51.5072 / 0.1276)

Sorry there are no passes over London.